CW6294 Alexandria VA US current weather conditions

sailwx.info

Wind from 105

Air temperature 1.7° C
Dewpoint -2.6° C

Last reported at 2019-Dec-13 02:03 UTC.
Time now 2019-Dec-13 02:35 UTC

Location: N 38°49' W 077°06'.
View on Google Maps.

See reports from other nearby stations

  
Tides and Currents Weather Stations Pressure Air Temp Water Temp Dewpoint Dewpoint Depression Visibility Wind Speed Wind Dir Waves Ship Positions
date/time (UTC)wind fromknots sea level pressurealtimeterstation pressurevisibilityair tempwater tempwave heightnotes
2019-Dec-13 02:03 105 1.7
2019-Dec-13 01:53 122 1.7
2019-Dec-13 01:43 127 1.7
2019-Dec-13 01:32 113 1.7
2019-Dec-13 01:22 113 1.7
2019-Dec-13 01:12 109 1.7
2019-Dec-13 01:02 109 1.7
2019-Dec-13 00:52 109 1.7
2019-Dec-13 00:42 098 1.7
2019-Dec-13 00:32 128 1.7
2019-Dec-13 00:22 114 1.7
2019-Dec-13 00:12 100 1.7
2019-Dec-13 00:02 123 1.7
2019-Dec-12 23:52 102 2.2
2019-Dec-12 23:41 101 2.2
2019-Dec-12 23:31 114 2.2
2019-Dec-12 23:21 106 2.2
2019-Dec-12 23:11 103 2.2
2019-Dec-12 23:01 097 2.2
2019-Dec-12 22:50 124 2.8
2019-Dec-12 22:40 105 0 gusting 5 2.8
2019-Dec-12 22:30 120 2.8
2019-Dec-12 22:20 130 3.3
2019-Dec-12 22:10 099 3.3
2019-Dec-12 22:00 109 3.3
2019-Dec-12 21:50 113 3.9
2019-Dec-12 21:40 142 3.9
2019-Dec-12 21:30 103 4.4
2019-Dec-12 21:19 126 4.4
2019-Dec-12 21:09 165 4.4
2019-Dec-12 20:59 148 4.4
2019-Dec-12 20:49 141 4.4
2019-Dec-12 20:39 103 5.0
2019-Dec-12 20:29 117 5.0
2019-Dec-12 20:19 121 5.0
2019-Dec-12 20:09 113 0 gusting 4 4.4
2019-Dec-12 19:59 162 5.0
2019-Dec-12 19:49 128 5.6
2019-Dec-12 19:39 157 5.0
2019-Dec-12 19:29 119 4.4
2019-Dec-12 19:19 109 0 gusting 3 4.4
2019-Dec-12 19:09 173 4.4
2019-Dec-12 18:59 108 4.4
2019-Dec-12 18:49 121 4.4
2019-Dec-12 18:39 133 4.4
2019-Dec-12 18:28 165 4.4
2019-Dec-12 18:18 104 3.9
2019-Dec-12 18:08 245 3.9
2019-Dec-12 17:58 104 3.9
2019-Dec-12 17:48 087 3.3
2019-Dec-12 17:38 086 3.9
2019-Dec-12 17:28 083 3.9
2019-Dec-12 17:18 135 3.9
2019-Dec-12 17:08 335 3.3
2019-Dec-12 16:58 060 3.3
2019-Dec-12 16:48 326 2.8
2019-Dec-12 16:37 319 2.8
2019-Dec-12 16:27 069 2.8
2019-Dec-12 16:17 177 2.8
2019-Dec-12 16:07 010 1.7
2019-Dec-12 15:56 078 2.2
2019-Dec-12 15:46 117 1.7
2019-Dec-12 15:36 105 1.7
2019-Dec-12 15:26 094 2.2
2019-Dec-12 15:16 080 1.7
2019-Dec-12 15:06 144 1.1
2019-Dec-12 14:56 105 0.6
2019-Dec-12 14:46 067 0.6
2019-Dec-12 14:36 104 0.6
2019-Dec-12 14:26 073 0.6
2019-Dec-12 14:16 086 0 gusting 6 0.6
2019-Dec-12 14:06 076 0.6
2019-Dec-12 13:56 047 0.6
2019-Dec-12 13:46 078 -0.0
2019-Dec-12 13:35 080 -0.0
2019-Dec-12 13:25 090 -0.6
2019-Dec-12 13:15 053 -0.6
2019-Dec-12 13:05 067 -0.6
2019-Dec-12 12:55 091 -0.6
2019-Dec-12 12:45 091 -0.6
2019-Dec-12 12:35 057 -1.1
2019-Dec-12 12:25 055 -1.1
2019-Dec-12 12:15 050 -1.1
2019-Dec-12 12:05 051 -1.1
2019-Dec-12 11:55 049 -1.1
2019-Dec-12 11:45 048 -0.6
2019-Dec-12 11:34 059 -0.6
2019-Dec-12 11:24 034 -0.6
2019-Dec-12 11:14 065 -0.6
2019-Dec-12 11:04 034 -0.6
2019-Dec-12 10:54 355 -0.6
2019-Dec-12 10:43 061 -0.6
2019-Dec-12 10:33 044 -0.6
2019-Dec-12 10:23 059 -0.6
2019-Dec-12 10:13 017 -0.6
2019-Dec-12 10:03 085 -0.6
2019-Dec-12 09:53 332 -0.6
2019-Dec-12 09:43 341 -0.6
2019-Dec-12 09:32 041 -0.6
2019-Dec-12 09:22 355 -0.0
2019-Dec-12 09:12 011 -0.0
2019-Dec-12 09:02 024 -0.0
2019-Dec-12 08:52 329 -0.0
2019-Dec-12 08:42 339 -0.0
2019-Dec-12 08:32 046 -0.0
2019-Dec-12 08:21 325 -0.0
2019-Dec-12 08:11 051 0.6
2019-Dec-12 08:01 326 0.6
2019-Dec-12 07:50 099 0.6
2019-Dec-12 07:40 329 0.6
2019-Dec-12 07:30 017 0 gusting 7 0.6
2019-Dec-12 07:20 355 0.6
2019-Dec-12 07:10 037 0.6
2019-Dec-12 07:00 311 0.6
2019-Dec-12 06:55 344 3 gusting 12 1.1
2019-Dec-12 06:39 320 1 gusting 8 1.1
2019-Dec-12 06:29 313 5 gusting 11 1.1
2019-Dec-12 06:19 304 5 gusting 11 0.6
2019-Dec-12 06:09 286 0.6
2019-Dec-12 05:59 336 3 gusting 8 1.1
2019-Dec-12 05:48 283 7 gusting 12 1.1
2019-Dec-12 05:38 259 6 gusting 9 1.1
2019-Dec-12 05:28 294 4 gusting 9 1.1
2019-Dec-12 05:18 326 5 gusting 9 0.6
2019-Dec-12 05:08 320 0.6
2019-Dec-12 04:58 292 0.6
2019-Dec-12 04:48 304 0.6
2019-Dec-12 04:38 342 1.1
2019-Dec-12 04:28 347 0 gusting 4 1.1
2019-Dec-12 04:18 302 4 gusting 6 1.1
2019-Dec-12 04:08 319 1.1
2019-Dec-12 03:58 300 1.1
2019-Dec-12 03:48 330 1.1
2019-Dec-12 03:38 330 0 gusting 6 1.7
2019-Dec-12 03:28 316 2 gusting 6 1.7
2019-Dec-12 03:17 289 1 gusting 7 1.7
2019-Dec-12 03:07 306 4 gusting 8 1.7
2019-Dec-12 02:57 314 6 gusting 11 1.7
2019-Dec-12 02:47 294 2 gusting 11 1.7
2019-Dec-12 02:37 311 1 gusting 9 2.2
2019-Dec-12 02:27 301 3 gusting 8 2.2
2019-Dec-12 02:17 303 5 gusting 11 2.2
2019-Dec-12 02:07 294 6 gusting 18 2.8
2019-Dec-12 01:57 283 7 gusting 17 2.8
2019-Dec-12 01:47 321 8 gusting 19 2.8
2019-Dec-12 01:37 312 10 gusting 21 2.8
2019-Dec-12 01:27 285 7 gusting 17 2.8
2019-Dec-12 01:17 314 6 gusting 16 2.8
2019-Dec-12 01:07 296 6 gusting 16 2.8
2019-Dec-12 00:57 295 3 gusting 12 3.3
2019-Dec-12 00:47 355 4 gusting 10 3.3
2019-Dec-12 00:37 333 4 gusting 10 3.3
2019-Dec-12 00:27 332 6 gusting 11 3.3
2019-Dec-12 00:17 332 6 gusting 13 3.3
2019-Dec-12 00:07 323 3 gusting 11 3.3
2019-Dec-11 23:57 339 0 gusting 9 3.3
2019-Dec-11 23:47 325 3.9
2019-Dec-11 23:37 309 3.9
2019-Dec-11 23:26 316 3.9
2019-Dec-11 23:16 335 3.9
2019-Dec-11 23:06 321 4.4
2019-Dec-11 22:56 301 4.4
2019-Dec-11 22:46 309 4.4
2019-Dec-11 22:36 303 4.4
2019-Dec-11 22:26 320 4.4
2019-Dec-11 22:16 322 4.4
2019-Dec-11 22:06 298 4.4
2019-Dec-11 21:56 313 4.4
2019-Dec-11 21:46 320 5.0
2019-Dec-11 21:36 312 5.0
2019-Dec-11 21:26 281 5.0
2019-Dec-11 21:16 227 5.6
2019-Dec-11 21:05 295 5.6
2019-Dec-11 20:55 298 2 gusting 7 5.6
2019-Dec-11 20:45 294 4 gusting 10 5.0
2019-Dec-11 20:35 304 5 gusting 9 5.0
2019-Dec-11 20:25 302 3 gusting 9 5.6
2019-Dec-11 20:15 238 1 gusting 10 5.0
2019-Dec-11 20:05 277 3 gusting 9 5.0
2019-Dec-11 19:55 323 4 gusting 9 5.0
2019-Dec-11 19:45 311 3 gusting 8 4.4
2019-Dec-11 19:35 248 5 gusting 11 4.4
2019-Dec-11 19:25 292 3 gusting 9 4.4
2019-Dec-11 19:15 315 6 gusting 11 4.4
2019-Dec-11 19:05 309 6 gusting 12 3.9
2019-Dec-11 18:55 314 4 gusting 10 3.9
2019-Dec-11 18:45 288 4 gusting 10 3.9
2019-Dec-11 18:35 282 5 gusting 10 3.9
2019-Dec-11 18:25 265 4 gusting 8 3.3
2019-Dec-11 18:15 318 5 gusting 9 3.3
2019-Dec-11 18:10 323 6 gusting 13 3.3
2019-Dec-11 17:55 269 5 gusting 15 3.3
2019-Dec-11 17:45 302 8 gusting 15 2.8
2019-Dec-11 17:34 301 9 gusting 18 2.8
2019-Dec-11 17:24 261 6 gusting 15 3.3
2019-Dec-11 17:14 307 6 gusting 13 3.3
2019-Dec-11 17:04 322 8 gusting 19 2.8
2019-Dec-11 16:54 309 11 gusting 19 2.8
2019-Dec-11 16:44 338 9 gusting 18 2.2
2019-Dec-11 16:34 288 7 gusting 15 2.8
2019-Dec-11 16:24 326 7 gusting 12 2.8
2019-Dec-11 16:14 311 6 gusting 15 2.2
2019-Dec-11 16:04 304 9 gusting 16 2.2
2019-Dec-11 15:54 284 10 gusting 20 2.2
2019-Dec-11 15:44 298 8 gusting 16 2.2
2019-Dec-11 15:34 298 7 gusting 20 2.2
2019-Dec-11 15:24 309 8 gusting 17 2.2
2019-Dec-11 15:14 319 9 gusting 21 2.2
2019-Dec-11 15:04 286 9 gusting 19 1.7
2019-Dec-11 14:54 291 7 gusting 13 1.7
2019-Dec-11 14:44 325 6 gusting 13 2.2
2019-Dec-11 14:34 315 6 gusting 16 1.7
2019-Dec-11 14:24 284 7 gusting 13 1.7
2019-Dec-11 14:14 291 6 gusting 13 1.7
2019-Dec-11 14:04 294 4 gusting 8 1.7
2019-Dec-11 13:54 297 4 gusting 7 1.7
2019-Dec-11 13:44 300 3 gusting 7 1.7
2019-Dec-11 13:34 297 4 gusting 7 1.1
2019-Dec-11 13:24 297 4 gusting 8 1.1
2019-Dec-11 13:14 280 3 gusting 8 1.1
2019-Dec-11 13:04 288 4 gusting 8 1.1
2019-Dec-11 12:59 284 4 gusting 8 1.1
2019-Dec-11 12:44 297 4 gusting 8 1.1
2019-Dec-11 12:34 286 2 gusting 9 1.1
2019-Dec-11 12:24 307 1.1
2019-Dec-11 12:14 309 1 gusting 6 1.1
2019-Dec-11 12:03 300 4 gusting 7 1.1
2019-Dec-11 11:53 303 2 gusting 6 0.6
2019-Dec-11 11:43 299 4 gusting 7 0.6
2019-Dec-11 11:33 297 3 gusting 7 0.6
2019-Dec-11 11:23 269 4 gusting 6 0.6
2019-Dec-11 11:13 298 5 gusting 8 0.6
2019-Dec-11 11:03 319 5 gusting 11 0.6
2019-Dec-11 10:53 315 2 gusting 7 0.6
2019-Dec-11 10:43 312 5 gusting 9 0.6
2019-Dec-11 10:33 317 5 gusting 12 0.6
2019-Dec-11 10:23 283 4 gusting 8 0.6
2019-Dec-11 10:13 305 1 gusting 7 0.6
2019-Dec-11 10:03 300 4 gusting 8 0.6
2019-Dec-11 09:53 312 4 gusting 7 0.6
2019-Dec-11 09:43 284 4 gusting 12 0.6
2019-Dec-11 09:33 312 5 gusting 9 0.6
2019-Dec-11 09:23 304 5 gusting 8 0.6
2019-Dec-11 09:13 313 4 gusting 8 0.6
2019-Dec-11 09:03 304 2 gusting 6 0.6
2019-Dec-11 08:53 300 2 gusting 7 0.6
2019-Dec-11 08:43 319 4 gusting 8 0.6
2019-Dec-11 08:33 303 6 gusting 11 0.6
2019-Dec-11 08:23 337 6 gusting 11 0.6
2019-Dec-11 08:13 267 6 gusting 13 0.6
2019-Dec-11 08:03 317 6 gusting 12 1.1
2019-Dec-11 07:53 315 8 gusting 18 1.7
2019-Dec-11 07:42 289 6 gusting 12 1.7
2019-Dec-11 07:33 302 6 gusting 13 1.7
2019-Dec-11 07:23 325 6 gusting 13 1.7
2019-Dec-11 07:12 308 5 gusting 10 1.7
2019-Dec-11 07:02 323 4 gusting 8 1.7
2019-Dec-11 06:52 350 4 gusting 9 1.7
2019-Dec-11 06:42 335 5 gusting 11 1.7
2019-Dec-11 06:32 319 6 gusting 13 2.2
2019-Dec-11 06:22 327 6 gusting 10 2.2
2019-Dec-11 06:12 333 6 gusting 13 2.8
2019-Dec-11 06:02 337 4 gusting 8 2.8
2019-Dec-11 05:52 314 6 gusting 13 2.8
2019-Dec-11 05:42 284 6 gusting 9 3.3
2019-Dec-11 05:32 299 7 gusting 16 3.3
2019-Dec-11 05:22 285 9 gusting 21 3.3
2019-Dec-11 05:12 314 8 gusting 6 3.3
2019-Dec-11 05:02 314 8 gusting 19 3.9
2019-Dec-11 04:52 315 9 gusting 18 3.9
2019-Dec-11 04:42 306 8 gusting 18 3.9
2019-Dec-11 04:32 350 6 gusting 15 4.4
2019-Dec-11 04:22 284 8 gusting 17 4.4
2019-Dec-11 04:12 309 8 gusting 17 5.0
2019-Dec-11 04:01 302 6 gusting 13 5.0
2019-Dec-11 03:51 295 8 gusting 19 5.0
2019-Dec-11 03:41 338 8 gusting 21 5.0
2019-Dec-11 03:31 338 8 gusting 19 5.6
2019-Dec-11 03:21 316 7 gusting 18 5.6
2019-Dec-11 03:11 295 6 gusting 16 6.1
2019-Dec-11 03:01 313 9 gusting 21 6.1
2019-Dec-11 02:51 308 5 gusting 19 6.7
2019-Dec-11 02:41 332 5 gusting 16 6.7
2019-Dec-11 02:31 277 3 gusting 19 6.7
2019-Dec-11 02:21 330 3 gusting 12 7.2
2019-Dec-11 02:11 324 3 gusting 13 7.2
2019-Dec-11 02:01 293 5 gusting 15 7.2